FLOCK 4BE-25 (60487 NORAD) Tracking and Keplerian Element Data

This shows tracking and keplerian element data for the satellite.

Feedback or suggestion? Click here.




ElementValue
Catalog60487
NameFLOCK 4BE-25
Epoch Orbit864
Epoch Day286.76833515
Epoch Year2024
RAAN1.4551
Inclination97.4405
Eccentricity0.000278
Argument of Perigee262.6111
Mean Anonmoly97.4808
Mean Motion15.19535298
Decay Rate0.0001882
L11 60487U 24149V 24286.76833515 .00018820 00000+0 88716-3 0 9996
L22 60487 97.4405 1.4551 0002780 262.6111 97.4808 15.19535298 8640



Live tracking and technical data element details for FLOCK 4BE-25 (NORAD 60487). FLOCK 4BE-25 can be tracked NOW for your location showing map with azimuth and elevation plus other details from your city location.







IsCatalogInMostPopularTable: catalog: 60487, numindb: 6
Update: records affected: 1



GetName: 60487 FLOCK 4BE-25

Hit Count: updated at: Tue, 03 Dec 2024 02:41:34 GMT